Theta_e
338 344 347 346 346 346 344 343 342 343 343 343 343 342 340 338 340 340 341 342 343 345 345 345 344 343 342 341 340 339 338 337 336 336 335 335 334 333 333 332 333 328 332
341 344 345 347 346 346 345 343 343 343 343 343 341 340 338 337 335 338 338 341 340 342 344 343 341 340 340 339 338 338 337 335 335 334 334 333 333 332 332 331 331 328 331
342 344 343 346 347 346 345 345 344 342 340 342 341 339 339 337 336 336 336 339 339 339 340 341 341 339 338 338 338 337 336 334 333 332 331 330 331 331 331 331 331 330 331
343 342 343 343 346 345 345 345 344 343 340 339 339 338 337 336 337 335 334 334 338 338 337 338 338 338 337 337 337 336 335 333 330 328 328 327 328 330 330 330 329 330 328
342 343 343 343 345 343 342 343 343 343 341 338 336 335 334 335 334 334 334 333 334 337 336 336 336 337 338 336 337 335 335 332 328 326 327 328 328 329 329 329 326 328 329
342 343 342 344 345 343 341 341 342 343 340 338 337 336 334 333 332 332 333 333 332 336 335 334 334 334 338 336 335 334 332 330 326 327 327 327 328 329 328 327 326 326 328
341 342 342 343 345 345 342 342 343 344 343 340 340 338 336 334 332 331 332 333 333 334 335 333 332 332 333 335 334 332 330 327 326 326 326 326 327 330 328 326 325 325 326
341 341 342 337 340 343 344 343 343 343 341 341 341 339 338 336 335 332 331 330 329 330 331 332 330 330 331 331 332 330 329 327 325 325 325 326 326 331 329 326 324 323 324
341 341 341 342 340 335 338 339 340 341 341 341 341 341 339 338 337 335 335 332 329 328 328 330 330 329 329 330 331 330 327 325 325 326 324 326 325 330 333 328 326 325 325
339 340 340 341 341 341 341 333 335 337 338 338 336 335 334 333 334 334 331 334 332 331 331 332 332 330 330 330 329 328 326 323 324 323 324 324 326 330 332 334 329 327 326
336 338 339 339 340 339 339 336 331 332 333 334 334 331 330 336 336 333 329 331 333 334 335 335 335 334 331 329 327 325 322 323 321 322 322 322 326 329 332 334 334 330 329
333 335 337 338 338 338 338 339 338 338 339 338 336 335 335 334 336 333 327 326 329 329 332 333 335 333 329 331 329 324 326 324 323 322 321 321 326 330 331 333 334 334 332
333 333 335 335 337 337 337 338 337 337 337 337 335 334 333 332 332 334 334 332 332 324 330 329 329 330 330 330 329 328 327 326 325 324 320 320 325 329 331 331 332 333 334
329 332 334 335 335 335 336 336 336 335 335 335 335 334 332 331 330 330 331 331 328 329 328 328 329 328 328 328 328 327 327 327 326 325 323 318 322 327 330 331 332 332 333
328 330 331 333 334 334 334 335 335 334 334 335 334 334 333 331 330 330 329 329 330 328 326 326 325 325 325 326 326 326 326 326 327 326 326 317 320 326 330 332 333 333 333
327 328 330 331 333 333 333 333 333 334 334 334 334 333 333 332 331 330 328 327 327 329 330 326 326 325 325 324 323 323 323 324 324 324 324 323 320 324 328 331 333 334 334
327 328 328 329 331 331 332 332 332 332 332 332 332 333 333 332 332 330 329 328 329 328 328 329 326 325 324 325 324 325 325 325 326 326 325 325 324 320 323 326 330 331 333
323 320 322 320 325 329 329 329 327 328 330 331 332 332 332 331 332 333 331 331 330 329 328 326 326 325 325 324 325 325 325 324 324 323 323 325 326 326 324 323 325 326 328
316 312 311 311 312 313 312 311 311 312 313 319 326 330 331 332 332 332 333 333 332 332 329 328 327 327 326 326 324 325 325 324 324 325 324 322 326 326 326 322 319 319 322
308 307 308 309 309 310 311 312 312 311 312 315 318 321 324 329 331 332 332 333 333 332 331 328 327 329 328 329 327 325 327 326 326 327 326 324 325 324 324 323 323 320 319
305 305 307 307 308 308 309 310 311 310 315 317 315 315 321 326 328 330 331 329 328 327 324 324 326 325 326 328 325 324 324 324 323 324 326 325 324 323 323 322 321 321 318
305 305 305 306 306 306 308 310 312 315 315 311 307 306 308 314 319 325 327 326 325 324 322 322 321 324 324 324 321 320 315 317 320 320 322 322 322 322 320 318 315 311 306
302 303 304 304 303 304 306 309 311 313 312 310 306 303 302 305 307 310 313 315 314 317 316 316 318 320 319 321 322 319 312 311 316 319 320 320 319 319 314 307 303 304 298
302 301 302 302 301 302 304 309 311 312 311 309 303 300 299 301 302 304 305 306 307 308 308 310 311 315 316 316 319 321 322 319 312 311 318 317 315 312 306 302 297 296 296
300 300 299 299 299 299 302 307 310 309 306 300 298 297 297 297 298 299 300 301 302 303 304 305 305 306 309 311 312 313 317 319 318 313 310 312 312 304 299 297 294 293 294
297 297 296 297 296 297 299 302 307 306 300 297 296 296 295 294 295 295 296 298 299 299 300 300 300 300 302 303 305 305 306 308 309 307 310 311 308 301 296 293 292 291 292
Wind_Speed
4 6 10 10 11 11 13 13 12 11 11 13 13 12 12 12 13 14 13 13 13 14 15 17 18 17 17 16 15 16 16 16 16 15 14 14 13 14 13 12 9 10 12
10 8 10 9 10 10 12 12 12 11 11 13 12 12 11 11 12 11 12 13 12 13 14 16 15 14 14 14 13 14 15 15 14 13 12 11 12 12 11 10 6 10 11
12 10 10 8 10 10 9 11 10 12 11 11 11 10 10 10 10 10 12 11 11 11 12 13 13 13 13 13 13 11 12 13 12 11 10 7 7 10 9 9 9 9 11
13 10 10 10 9 10 9 9 7 12 12 10 9 9 8 8 9 9 9 7 10 11 11 12 12 12 11 11 11 9 11 12 11 9 6 6 7 9 7 9 8 8 8
11 10 9 10 9 10 9 7 8 11 10 9 9 8 8 8 8 8 9 8 7 9 10 11 11 11 8 10 11 11 9 9 9 6 6 6 5 8 8 7 6 6 9
10 10 10 10 11 10 8 8 7 10 10 9 8 7 7 7 6 6 7 6 4 9 11 10 10 10 11 9 11 11 9 7 5 5 5 5 5 7 7 5 5 5 6
10 9 9 10 10 10 9 9 8 8 9 9 9 7 6 6 5 5 5 6 6 8 8 8 8 8 9 10 11 10 9 8 5 3 3 4 4 6 6 4 3 4 5
12 10 8 8 9 8 8 8 7 6 4 5 7 7 7 6 5 4 4 4 4 4 4 4 5 6 5 6 8 8 7 5 4 4 3 3 5 6 3 3 2 2 3
8 9 8 7 7 7 7 8 7 6 5 4 4 4 5 6 6 4 3 2 1 1 1 2 2 3 3 4 5 5 5 5 3 2 3 2 4 7 7 1 1 2 3
8 8 8 8 7 6 6 7 7 6 6 5 4 4 4 4 4 4 3 2 2 2 2 1 1 1 2 4 4 5 5 2 2 3 3 3 7 7 8 7 4 3 3
6 7 7 7 7 7 6 5 5 5 5 5 5 4 3 2 4 4 3 4 4 4 4 4 3 3 3 2 4 4 4 2 3 3 3 5 8 9 8 9 7 6 4
10 8 8 8 8 7 5 6 5 5 4 4 4 4 3 3 3 4 4 4 4 5 6 7 6 5 4 3 3 3 2 3 3 4 4 7 9 9 9 9 10 8 9
9 7 9 8 8 8 6 4 3 3 3 4 5 4 4 3 3 3 2 2 3 3 3 4 4 3 4 3 3 3 4 4 3 3 5 8 9 10 10 10 10 11 10
6 9 8 9 7 7 4 5 4 4 4 4 5 6 4 3 4 3 3 4 3 2 4 4 3 4 5 5 5 6 6 5 4 4 5 8 10 11 12 12 12 12 12
7 7 8 7 8 7 7 5 5 5 5 6 5 6 5 5 5 4 4 3 4 3 4 3 3 3 4 5 5 6 7 7 7 5 4 8 11 13 14 14 13 12 12
7 8 7 9 9 7 8 8 6 5 6 6 5 6 7 6 5 5 4 4 4 5 4 3 4 3 4 3 5 5 7 6 6 7 6 5 11 15 13 14 14 13 14
7 5 8 8 7 9 9 7 6 6 5 6 6 8 9 8 7 6 5 4 5 3 5 4 4 3 4 4 7 6 6 7 8 8 7 6 6 9 11 11 13 12 13
5 7 5 5 6 7 6 5 4 4 5 5 6 6 9 8 9 7 5 6 5 3 3 3 4 4 5 5 6 5 5 4 6 7 5 6 5 5 4 7 8 9 11
7 6 6 5 5 5 4 3 3 3 3 3 4 5 7 8 8 7 5 4 3 4 3 3 4 4 4 5 5 5 5 5 5 5 6 4 7 6 4 4 5 6 8
6 6 5 5 5 4 2 1 1 1 2 1 2 3 5 5 7 6 4 4 4 4 2 2 2 2 4 6 4 4 5 5 4 5 6 4 4 4 3 4 3 5 10
5 7 8 7 5 3 1 1 1 1 0 1 2 4 3 3 5 7 5 5 4 4 1 0 2 4 3 2 3 2 3 4 5 4 3 3 3 3 5 6 5 5 8
8 7 7 7 6 4 2 2 2 2 2 3 3 4 5 4 4 3 5 4 2 2 3 4 4 3 2 4 2 0 3 3 2 3 3 4 5 5 8 10 11 11 9
8 8 8 6 6 4 4 3 2 3 2 2 2 2 4 5 5 5 5 5 4 3 2 4 2 1 1 1 2 1 1 2 2 2 4 5 6 6 9 10 12 11 11
11 6 6 6 5 4 6 5 5 4 4 1 2 3 3 5 6 6 6 6 5 3 3 2 1 0 2 2 2 3 3 2 2 3 1 6 7 8 8 8 9 10 10
7 9 6 6 5 4 4 5 4 3 2 3 4 6 4 4 5 6 5 5 4 3 3 3 2 2 1 1 1 1 2 1 2 4 4 3 5 7 7 7 8 8 9
6 8 6 6 4 3 4 4 6 7 8 6 5 4 3 2 3 4 5 4 4 4 3 3 3 3 2 2 1 2 2 2 1 2 5 4 3 5 5 6 7 7 7
Wind_Direction
160 149 135 133 133 135 122 118 112 105 101 100 100 97 89 85 80 74 71 71 68 69 79 82 74 77 80 79 79 77 74 69 65 63 64 63 66 70 69 62 44 62 62
144 150 137 135 133 138 130 128 123 113 103 105 103 99 92 85 81 81 75 78 77 76 78 80 79 78 78 73 77 82 77 72 71 68 60 50 65 68 74 80 67 73 63
142 148 141 132 124 129 143 142 138 124 116 107 105 99 98 90 82 90 79 72 88 82 78 77 77 73 72 72 76 87 83 78 69 64 59 56 58 63 75 69 54 67 71
144 148 145 138 133 131 126 140 147 126 122 118 114 108 102 100 89 99 84 72 78 90 80 74 69 66 68 72 70 85 84 78 71 61 59 50 52 58 58 66 68 55 60
143 146 144 140 141 136 135 133 114 123 118 122 121 112 108 104 96 91 87 69 63 102 77 67 59 51 72 79 74 76 87 80 67 58 51 44 37 56 63 65 51 35 1
145 147 151 149 147 143 136 136 132 130 130 133 133 128 116 112 106 103 86 71 52 67 77 60 53 49 55 90 85 69 66 67 59 52 48 37 28 44 58 63 47 29 10
151 153 161 157 154 151 147 143 142 156 153 150 153 146 142 135 116 109 95 77 82 61 67 60 53 49 40 57 75 72 64 55 40 31 29 16 5 4 39 48 37 10 8
160 161 164 164 158 159 158 150 145 142 129 138 161 160 154 151 147 135 133 114 103 95 89 80 58 52 47 43 58 67 66 53 40 39 12 333 325 321 11 25 8 338 338
165 165 169 171 173 169 166 163 159 157 152 136 132 152 161 163 172 172 158 149 175 137 125 102 46 29 31 30 33 45 51 53 19 2 336 321 304 302 303 227 316 320 312
168 175 177 177 178 182 183 185 179 176 174 170 159 154 174 190 196 201 191 221 243 264 262 246 226 312 7 16 12 10 8 59 343 313 302 294 297 303 293 286 234 264 296
178 182 183 187 188 189 194 198 201 203 199 198 191 193 190 214 216 213 211 227 254 274 288 288 273 268 292 338 346 351 347 330 315 296 284 282 290 289 297 286 263 235 247
189 192 193 192 194 191 199 200 207 205 209 214 203 202 205 213 212 218 227 243 264 280 285 285 289 288 277 278 292 302 309 309 294 289 274 276 282 290 287 288 287 261 242
195 190 194 197 198 194 199 200 205 211 212 215 226 224 203 200 202 210 227 240 254 268 274 284 281 271 272 273 278 282 287 286 284 283 271 270 276 282 286 290 284 289 278
189 205 200 199 198 201 198 205 206 208 215 222 221 215 206 207 210 213 208 213 228 241 264 270 267 264 266 268 272 280 277 273 266 266 267 255 266 273 279 283 286 284 285
205 209 212 199 207 204 203 210 215 218 218 226 224 219 211 215 220 210 225 233 223 193 211 227 232 246 254 259 261 260 266 265 265 263 267 247 255 265 268 272 276 282 282
212 217 208 209 211 199 210 214 221 224 227 224 226 228 221 223 224 219 220 216 224 217 239 211 214 226 243 240 257 239 251 249 247 247 252 255 246 260 270 275 282 281 280
220 224 217 215 204 205 211 217 225 232 231 235 231 226 227 222 226 225 207 216 234 206 225 233 241 226 250 246 252 245 243 246 256 258 257 258 258 256 266 278 285 290 292
225 226 236 219 212 210 205 211 231 244 249 253 246 237 229 223 224 232 225 226 214 187 193 210 228 221 229 230 246 244 248 244 248 247 250 262 273 280 282 280 302 304 307
226 226 215 196 189 180 180 191 211 241 253 267 269 257 246 230 224 227 233 251 190 204 202 201 236 226 252 252 243 251 250 239 245 258 257 258 275 284 304 315 305 311 331
214 204 191 179 171 163 154 184 245 264 267 282 286 277 270 244 229 220 224 211 176 190 200 175 240 268 262 280 273 265 269 261 263 267 274 275 291 308 307 328 8 45 34
210 199 191 171 181 163 165 178 226 242 148 90 36 5 328 252 225 212 207 180 167 162 125 331 250 252 256 294 282 303 316 314 296 278 277 304 12 36 52 55 55 62 70
214 204 179 192 178 179 170 175 146 144 105 101 89 51 30 40 51 108 144 125 100 113 114 93 51 330 32 5 24 233 319 323 346 18 40 59 76 77 75 67 67 63 57
222 201 195 185 182 178 178 140 111 96 102 135 110 68 30 50 59 73 78 84 77 84 94 88 87 151 267 276 225 186 272 273 313 347 51 78 82 85 82 74 65 64 58
220 182 191 185 178 183 177 188 178 175 172 174 114 109 79 59 68 71 80 84 88 88 92 84 49 269 217 244 295 257 254 194 257 310 90 73 78 77 78 74 68 62 58
175 187 174 175 184 184 190 197 187 165 133 132 128 123 105 75 65 67 74 84 88 88 87 77 61 40 10 226 233 336 279 264 230 244 266 139 86 73 73 70 68 59 53
172 162 164 166 167 170 180 189 192 172 155 150 157 149 133 96 70 64 73 81 82 86 85 83 86 67 54 62 36 30 331 299 252 222 247 258 134 97 87 73 63 58 50